Weather Roundup
Issued by NWS

Home | Current Version | Previous Version | Text Only | Print | Product List | Glossary On
Versions: 1 2 3 4 5 6 7 8 9 10 11 12 13 14 15 16 17 18 19 20 21 22 23 24 25 26 27 28 29 30 31 32 33 34 35 36 37 38 39 40 41 42 43 44 45 46 47 48 49 50
655
NZUS93 KARX 101059
HRRWXR

CURRENT HOURLY OBSERVATIONS ACROSS
MUCH OF THE UPPER MISSISSIPPI VALLEY
NATIONAL WEATHER SERVICE LA CROSSE WI
500 AM CST SAT DEC 10 2016


...SOUTHEAST MINNESOTA...


CITY           SKY/WX    TMP DP  RH WIND       PRES   REMARKS
ROCHESTER      CLOUDY     4   2  91 NW8       30.45S WCI  -9
ROCHESTER/MAYO PTSUNNY    8   4  85 NW8       30.47S WCI  -5
WINONA         CLEAR     10   5  79 NW6       30.51F WCI   1
AUSTIN         FLURRIES   7   3  85 NW6       30.46S WCI  -3
ALBERT LEA     CLOUDY     9   5  85 CALM      30.47S
DODGE CENTER   PTCLDY     3   0  85 NW3       30.45S
PRESTON        CLOUDY     6   2  84 NW5       30.46S WCI  -3
OWATONNA       CLEAR      3  -2  78 W3        30.47F
FARIBAULT      CLEAR      3   0  85 CALM      30.48F
$$

...ELSEWHERE IN MINNESOTA...


CITY           SKY/WX    TMP DP  RH WIND       PRES   REMARKS
MINNEAPOLIS    CLEAR      4  -1  80 NW7       30.50F WCI  -8
INTNL FALLS    CLEAR     -7 -12  79 W6        30.42F WCI -20
DULUTH         CLOUDY     4  -3  73 NW7       30.39F WCI  -8
RED WING       CLOUDY     9   1  72 W6        30.48F WCI  -1
REDWOOD FALLS  CLOUDY     2  -4  76 W5        30.52R WCI  -8
MANKATO        CLEAR      3  -2  79 NW6       30.51R WCI  -8
WORTHINGTON    FLURRIES   6   2  83 NE6       30.44F WCI  -4
FAIRMONT       FLURRIES   7   2  80 N6        30.49F WCI  -3
$$

...SOUTHWEST WISCONSIN...


CITY           SKY/WX    TMP DP  RH WIND       PRES   REMARKS
LA CROSSE      PTCLDY    11   4  73 W7        30.51F WCI   0
PRAIRIE DU CHI CLOUDY    17  11  79 W6        30.52S WCI   8
BOSCOBEL       MOCLDY    16  10  77 W6        30.51S WCI   7
LONE ROCK      NOT AVBL
PLATTEVILLE    MOCLDY    16  15  97 W5        30.48S WCI   9
FORT MC COY    PTCLDY    10   6  85 W3        30.49S
MAUSTON-NEW LI SUNNY     12   8  83 W5        30.46S WCI   4
VIROQUA        CLOUDY    11   7  85 W8        30.43F WCI  -1
WIS DELLS      CLOUDY    13   9  84 W5        30.45F WCI   6
$$

...ELSEWHERE IN WISCONSIN...


CITY           SKY/WX    TMP DP  RH WIND       PRES   REMARKS
MILWAUKEE      PTCLDY    19  12  74 W6        30.47S WCI  11
MADISON        PTCLDY    15  11  83 W3        30.47S
GREEN BAY      CLOUDY    19   7  59 W9        30.42S WCI   8
EAU CLAIRE     NOT AVBL
BLACK RVR FLS  FAIR       8   4  84 W5        30.48S WCI  -1
MEDFORD        CLOUDY    10   3  75 W6        30.38R WCI   0
WAUSAU         CLOUDY    12   1  61 W9        30.39S WCI   0
WIS RAPIDS     MOCLDY    10   8  92 W6        30.44S WCI   0
MARSHFIELD     CLOUDY    12   4  70 NW8       30.40S WCI   0
RICE LAKE      LGT SNOW  11   6  81 CALM      30.46R VSB 1
$$

...NORTHEAST IOWA...


CITY           SKY/WX    TMP DP  RH WIND       PRES   REMARKS
WATERLOO       CLOUDY    17  14  88 CALM      30.49S
DUBUQUE        PTCLDY    14  12  92 CALM      30.48S
DECORAH        FLURRIES  12   7  79 NW3       30.45F
MASON CITY     CLOUDY    11   6  81 N9        30.48S WCI  -2
CHARLES CITY   FLURRIES  12   9  85 N7        30.49R WCI   2
OELWEIN        CLOUDY    16  14  93 CALM      30.48S
$$

...ELSEWHERE IN IOWA...


CITY           SKY/WX    TMP DP  RH WIND       PRES   REMARKS
DES MOINES     CLOUDY    23  13  65 E5        30.48F WCI  17
IOWA CITY      CLOUDY    21  15  78 CALM      30.54S
FORT DODGE     CLOUDY    18  10  73 CALM      30.47F
MARSHALLTOWN   CLOUDY    20  15  81 CALM      30.48S
CEDAR RAPIDS   CLOUDY    17  15  92 SW3       30.50S
$$

...NORTHERN ILLINOIS...


CITY           SKY/WX    TMP DP  RH WIND       PRES   REMARKS
CHICAGO-OHARE  CLOUDY    19  12  74 W9        30.50R WCI   8
CHICAGO-MIDWAY CLOUDY    21  12  68 W9        30.51S WCI  11
MOLINE         CLOUDY    21  14  74 S3        30.53F
ROCKFORD       CLOUDY    18  13  80 W7        30.52S WCI   9
PEORIA         CLOUDY    22  14  71 W3        30.55F
$$

NOTE: "FAIR" INDICATES FEW OR NO CLOUDS BELOW 12,000 FEET WITH NO
SIGNIFICANT WEATHER AND/OR OBSTRUCTIONS TO VISIBILITY. WIND
SPEEDS ARE IN MILES-PER-HOUR.




USA.gov is the U.S. government's official web portal to all federal, state and local government web resources and services.